Istrana, Italy

3:28 PM CET on December 12, 2017 (GMT +0100)
Istrana Mil

Weather History for LIPS - October, 2013

Change the Weather History Date:

Thursday, October 10, 2013

  Actual Average Record
Temperature  
Mean Temperature 60 °F -  
Max Temperature 64 °F 62 °F 77 °F (2008)
Min Temperature 56 °F 44 °F 46 °F (1999)
Degree Days  
Heating Degree Days 5    
Growing Degree Days 10 (Base 50)    
Moisture  
Dew Point 56 °F    
Average Humidity 87    
Maximum Humidity 94    
Minimum Humidity 80    
Precipitation  
Precipitation 0.16 in 0.11 in - ()
Sea Level Pressure  
Sea Level Pressure 29.79 in    
Wind  
Wind Speed 2 mph ()    
Max Wind Speed 8 mph    
Max Gust Speed -    
Visibility 2.3 miles    
Events Rain , Thunderstorm    
Averages and records for this station are not official NWS values.
T = Trace of Precipitation, MM = Missing Value Source: Averaged Metar Reports

Daily Weather History Graph

Daily Weather History Graph

Search for Another Location

Airport or City:

Trip Planner

Search our weather history database for the weather conditions in past years. The results will help you decide how hot, cold, wet, or windy it might be!

Date:

Astronomy

Oct. 10, 2013 Rise Set
Actual Time 7:21 AM CEST 6:34 PM CEST
Civil Twilight 6:51 AM CEST 7:04 PM CEST
Nautical Twilight 6:17 AM CEST 7:38 PM CEST
Astronomical Twilight 5:42 AM CEST 8:13 PM CEST
Moon 1:09 PM CEST (10/10) 10:43 PM CEST (10/10)
Length of Visible Light 12h 13m
Length of Day
11h 13m
Waxing Crescent, 33% of the Moon is Illuminated
Oct 10
Waxing Crescent
Oct 12
First Quarter
Oct 19
Full
Oct 27
Last Quarter
Nov 3
New

Hourly Weather History & Observations

Time (CEST) Temp. Dew Point Humidity Pressure Visibility Wind Dir Wind Speed Gust Speed Precip Events Conditions
12:55 AM 59.0 °F 55.4 °F 88% 29.98 in - North - - N/A   Mostly Cloudy
1:55 AM 57.2 °F 55.4 °F 94% 29.98 in - North - - N/A   Mostly Cloudy
2:55 AM 57.2 °F 55.4 °F 94% 29.98 in - North - - N/A   Mostly Cloudy
3:55 AM 57.2 °F 55.4 °F 94% 29.92 in - North - - N/A   Mostly Cloudy
4:55 AM 57.2 °F 55.4 °F 94% 29.92 in - North - - N/A   Mostly Cloudy
5:00 AM 58 °F 55 °F 86% 29.93 in 4 mi Calm Calm - -   Mist
5:55 AM 57.2 °F 55.4 °F 94% 29.89 in - North - - N/A   Mostly Cloudy
6:55 AM 57.2 °F 55.4 °F 94% 29.89 in - North - - N/A   Mostly Cloudy
7:55 AM 57.2 °F 53.6 °F 88% 29.89 in - North - - N/A   Mostly Cloudy
8:00 AM 57 °F 54 °F 86% 29.90 in 1 mi Calm Calm - -   Mist
8:55 AM 57.2 °F 53.6 °F 88% 29.86 in - North - - N/A   Mostly Cloudy
9:55 AM 59.0 °F 55.4 °F 88% 29.86 in - North - - N/A Rain Light Rain
10:55 AM 59.0 °F 55.4 °F 88% 29.83 in - North - - N/A   Mostly Cloudy
11:00 AM 59 °F 55 °F 83% 29.86 in 1 mi NE 3.5 mph - - Rain Light Rain
11:55 AM 60.8 °F 55.4 °F 82% 29.83 in - North - - N/A   Mostly Cloudy
12:55 PM 60.8 °F 57.2 °F 88% 29.83 in - North - - N/A   Mostly Cloudy
1:55 PM 62.6 °F 57.2 °F 82% 29.80 in - North - - N/A   Mostly Cloudy
2:00 PM 62 °F 58 °F 81% 29.80 in 1 mi NE 8.1 mph - -   Partly Cloudy
2:55 PM 62.6 °F 57.2 °F 82% 29.74 in - North - - N/A   Mostly Cloudy
4:55 PM 64.4 °F 59.0 °F 83% 29.68 in - North - - N/A   Mostly Cloudy
5:00 PM 64 °F 59 °F 80% 29.70 in 1 mi ENE 5.8 mph - -   Mist
5:06 PM 64.4 °F 59.0 °F 83% 29.68 in - North - - N/A Rain , Thunderstorm Light Thunderstorms and Rain
5:55 PM 62.6 °F 59.0 °F 88% 29.65 in - North - - N/A Rain Light Rain
6:55 PM 60.8 °F 57.2 °F 88% 29.65 in - North - - N/A   Mostly Cloudy
7:55 PM 60.8 °F 57.2 °F 88% 29.65 in - North - - N/A   Mostly Cloudy
8:00 PM 60 °F 57 °F 86% 29.65 in 2 mi Calm Calm - -   Mist
8:55 PM 60.8 °F 57.2 °F 88% 29.62 in - North - - N/A   Mostly Cloudy
9:55 PM 60.8 °F 57.2 °F 88% 29.62 in - North - - N/A   Mostly Cloudy
10:55 PM 59.0 °F 57.2 °F 94% 29.65 in - North - - N/A   Scattered Clouds
11:00 PM 60 °F 56 °F 84% 29.65 in 6 mi East 3.5 mph - -   Partly Cloudy
11:55 PM 60.8 °F 55.4 °F 82% 29.65 in - North - - N/A   Partly Cloudy